MIDAS 5 DEB, 273

Orbit data source: Space-Track

MIDAS 5 DEB, 273 is space debris in LEO originally from a launch on Mon, 09 Apr 1962 UTC launched from the Air Force Western Test Range (AFWTR). Debris objects in space refer to the collection of defunct objects orbiting the Earth. Examples of debris include non-operational satellites, rocket bodies, and fragments generated from explosions, collisions, or faulty payload assembly.

Loading next visibility...
MIDAS 5 DEB details
Identifier
273, 1962-010C
Orbit
LEO
Last TLE update19 hours ago
Origin
Flag of USUSAF SSD (US)
ManufacturerUnknown
MissionSpacecraft
Bus & MotorUnknown
Mass~10 kg wet, ~10 kg dry
Launch date (UTC)
1962-04-09 (63 years ago)
Launch vehicleUnknown
Launch site
Air Force Western Test Range (AFWTR)
Object type
Payload
Rocket body
Debris
Shape & HBRUnknown
Radar Cross SectionMedium (>0.1 m² and <1 m²)

Expand to show TLE details & history

TLE from 19 hours ago
0 MIDAS 5 DEB
1 00273U 62010C   25047.29126048  .00000053  00000-0  92763-2 0  9998
2 00273  86.6751   8.1217 0322093  98.0492 265.7082  9.43809465165445
Epoch: 2025-02-16T06:59Z
Definitive object data (Epoch: 2025-02-16T06:59:24.905Z)
Latitude-0.00009°
Longitude116.7415°
Altitude3,114.979 km
Speed6.469 km/s
True Right ascension00h 32m 29s
True Declination0° 00' 00"
Sunlit
Object was in daylight at TLE epoch
Visualization TLE readout
Latitude9.90173°
Longitude-63.95219°
Altitude2,983.585 km
Speed6.56 km/s
Apparent Right ascension13h 54m 20s
Apparent Declination-11° 26' 31"
Sunlit
Object is in full shadow
Visualization observer readout
Local Sidereal Time04:45:34
Azimuth65.095° ENE
Elevation-42.75°
Doppler factor1
Orbital elements
Apogee altitude3,382.414 km
Perigee altitude2,773.273 km
Semi-major axis9,455.981 km
Eccentricity0.0322093
Inclination86.6751°
RAAN8.1217°
Arg. of periapsis98.0492°
True anomaly262.0412°
Mean anomaly265.7082°
Eccentric anomaly263.87328°
Mean motion2.36039 °/min
BSTAR0.0092763
Orbital period152.52 mins
Loading maneuver chart data...
Loading historical data...
Loading historical data...
Loading historical data...
Loading historical data...
Loading historical data...
Loading historical data...
Loading historical data...

MIDAS 5 DEB Visibility forecast

Observer location: undefined°, undefined

Span
Click to sort rows by Start time (UTC) header in descending order
Start Az.
Max El. time (UTC)
Max El. Az.
Max El.
End time (UTC)
End Az.
18 mins2025-02-17 06:37:49.666Z21.296° NNE2025-02-17 06:46:49.666Z62.29° ENE18.454°2025-02-17 06:55:49.666Z101.585° ESE
29 mins2025-02-17 09:08:49.666Z358.424° N2025-02-17 09:22:49.666Z121.954° SE44.834°2025-02-17 09:37:49.666Z178.585° S
19 mins2025-02-17 11:43:49.666Z335.489° NNW2025-02-17 11:52:49.666Z293.704° NW21.903°2025-02-17 12:02:49.666Z249.497° W
13 mins2025-02-17 18:49:49.666Z87.319° E2025-02-17 18:55:49.666Z62.175° ENE15.167°2025-02-17 19:02:49.666Z31.934° NE
29 mins2025-02-17 21:10:49.666Z167.201° S2025-02-17 21:25:49.666Z78.263° E43.954°2025-02-17 21:39:49.666Z5.481° NNE
23 mins2025-02-17 23:48:49.666Z239.519° WSW2025-02-17 23:59:49.666Z290.587° WNW25.883°2025-02-18 00:11:49.666Z347.584° N
|